Weather History for Angel Fire, NM

Change the Weather History Date:

Friday, December 6, 2013

  Actual Average (KSKX) Record (KSKX)
Temperature  
Mean Temperature 14 °F -  
Max Temperature 19 °F 39 °F 57 °F (2008)
Min Temperature 7 °F 11 °F -2 °F (2005)
Degree Days  
Heating Degree Days 51    
Moisture  
Dew Point 7 °F    
Average Humidity 68    
Maximum Humidity 84    
Minimum Humidity 55    
Precipitation  
Precipitation 0.00 in - - ()
Sea Level Pressure  
Sea Level Pressure 29.93 in    
Wind  
Wind Speed 0 mph (North)    
Max Wind Speed 0 mph    
Max Gust Speed -    
Visibility 6 miles    
Events Snow    
Averages and records for this station are not official NWS values.
T = Trace of Precipitation, MM = Missing Value Source: NWS Daily Summary

Daily Weather History Graph

Daily Weather History Graph

Search for Another Location

Airport:

Trip Planner

Search our weather history database for the weather conditions in past years. The results will help you decide how hot, cold, wet, or windy it might be!

Date:

Astronomy

Dec. 06, 2013 Rise Set
Actual Time 6:58 AM MST 4:45 PM MST
Civil Twilight 6:30 AM MST 5:14 PM MST
Nautical Twilight 5:58 AM MST 5:46 PM MST
Astronomical Twilight 5:27 AM MST 6:17 PM MST
Moon 10:10 AM MST (12/6) 9:15 PM MST (12/6)
Length of Visible Light 10h 43m
Length of Day
9h 46m
Waxing Crescent, 20% of the Moon is Illuminated
Dec 6
Waxing Crescent
Dec 9
First Quarter
Dec 17
Full
Dec 25
Last Quarter
Jan 1
New

Hourly Weather History & Observations

Time (MST) Temp. Dew Point Humidity Pressure Visibility Wind Dir Wind Speed Gust Speed Precip Events Conditions
12:15 AM 17.4 °F 10.0 °F 73% 29.82 in 10.0 mi Calm Calm - N/A Snow Light Snow
12:35 AM 17.4 °F 10.0 °F 73% 29.82 in 10.0 mi Calm Calm - N/A Snow Light Snow
12:55 AM 17.2 °F 9.3 °F 71% 29.81 in 10.0 mi Calm Calm - N/A   Overcast
1:15 AM 17.1 °F 9.0 °F 71% 29.82 in 10.0 mi Calm Calm - N/A   Overcast
1:35 AM 17.1 °F 8.8 °F 70% 29.82 in 10.0 mi Calm Calm - N/A   Overcast
1:55 AM 16.7 °F 9.1 °F 72% 29.83 in 5.0 mi Calm Calm - N/A Snow Light Snow
2:15 AM 16.2 °F 9.9 °F 76% 29.83 in 2.5 mi Calm Calm - N/A Snow Light Snow
4:35 AM 14.9 °F 9.0 °F 77% 29.84 in 3.0 mi Calm Calm - N/A Snow Light Snow
4:55 AM 14.7 °F 10.2 °F 82% 29.84 in 1.2 mi Calm Calm - N/A Snow Light Snow
5:15 AM 14.9 °F 10.0 °F 81% 29.84 in 2.0 mi Calm Calm - N/A Snow Light Snow
5:35 AM 14.7 °F 9.9 °F 81% 29.84 in 1.5 mi Calm Calm - N/A Snow Light Snow
5:55 AM 14.4 °F 10.2 °F 84% 29.85 in 0.8 mi Calm Calm - N/A Snow Snow
6:15 AM 14.7 °F 9.7 °F 80% 29.85 in 1.2 mi Calm Calm - N/A Snow Light Snow
6:35 AM 14.4 °F 9.3 °F 80% 29.85 in 1.2 mi Calm Calm - N/A Snow Light Snow
6:55 AM 14.0 °F 9.9 °F 84% 29.87 in 1.0 mi Calm Calm - N/A Snow Snow
7:15 AM 14.5 °F 8.6 °F 77% 29.88 in 1.5 mi Calm Calm - N/A Snow Light Snow
7:35 AM 14.5 °F 7.9 °F 75% 29.88 in 2.5 mi Calm Calm - N/A Snow Light Snow
7:55 AM 14.7 °F 8.8 °F 77% 29.89 in 1.5 mi Calm Calm - N/A Snow Light Snow
8:15 AM 14.9 °F 8.2 °F 75% 29.89 in 2.5 mi Calm Calm - N/A Snow Light Snow
8:35 AM 14.5 °F 7.3 °F 73% 29.90 in 1.2 mi Calm Calm - N/A Snow Light Snow
8:55 AM 14.0 °F 6.6 °F 72% 29.90 in 0.8 mi Calm Calm - N/A Snow Light Snow
9:15 AM 14.0 °F 7.7 °F 76% 29.92 in 1.5 mi Calm Calm - N/A   Haze
9:35 AM 14.0 °F 7.5 °F 75% 29.92 in 1.5 mi Calm Calm - N/A Snow Light Snow
9:55 AM 14.4 °F 7.5 °F 74% 29.93 in 0.8 mi Calm Calm - N/A Snow Light Snow
10:15 AM 14.9 °F 7.3 °F 72% 29.93 in 2.0 mi Calm Calm - N/A   Haze
10:35 AM 15.6 °F 7.3 °F 70% 29.93 in 3.0 mi Calm Calm - N/A   Haze
10:55 AM 15.6 °F 7.7 °F 71% 29.93 in 1.8 mi Calm Calm - N/A   Haze
11:15 AM 16.2 °F 6.3 °F 65% 29.93 in 3.0 mi Calm Calm - N/A   Haze
11:35 AM 17.2 °F 5.9 °F 61% 29.93 in 10.0 mi Calm Calm - N/A   Clear
11:55 AM 18.0 °F 5.7 °F 59% 29.93 in 5.0 mi Calm Calm - N/A   Haze
12:15 PM 18.5 °F 6.6 °F 60% 29.93 in 7.0 mi Calm Calm - N/A   Clear
12:35 PM 17.6 °F 6.8 °F 63% 29.93 in 5.0 mi Calm Calm - N/A   Haze
12:55 PM 18.0 °F 7.9 °F 65% 29.92 in 5.0 mi Calm Calm - N/A   Haze
1:15 PM 18.1 °F 8.1 °F 65% 29.93 in 4.0 mi Calm Calm - N/A   Haze
1:35 PM 18.5 °F 7.9 °F 63% 29.91 in 4.0 mi Calm Calm - N/A   Haze
1:55 PM 18.5 °F 7.9 °F 63% 29.91 in 4.0 mi Calm Calm - N/A   Haze
2:15 PM 19.0 °F 7.2 °F 60% 29.91 in 5.0 mi Calm Calm - N/A   Haze
2:35 PM 19.0 °F 7.3 °F 60% 29.91 in 4.0 mi Calm Calm - N/A   Haze
2:55 PM 19.2 °F 7.9 °F 61% 29.91 in 4.0 mi Calm Calm - N/A   Haze
3:15 PM 19.2 °F 7.5 °F 60% 29.91 in 5.0 mi Calm Calm - N/A   Haze
3:35 PM 18.9 °F 7.3 °F 61% 29.91 in 3.0 mi Calm Calm - N/A   Haze
4:55 PM 17.6 °F 5.9 °F 60% 29.95 in 10.0 mi Calm Calm - N/A   Clear
5:15 PM 17.4 °F 5.9 °F 61% 29.96 in 10.0 mi Calm Calm - N/A   Clear
5:35 PM 17.1 °F 5.5 °F 61% 29.96 in 10.0 mi Calm Calm - N/A   Clear
5:55 PM 17.2 °F 5.0 °F 59% 29.97 in 10.0 mi Calm Calm - N/A   Clear
6:15 PM 17.4 °F 4.8 °F 58% 29.98 in 10.0 mi Calm Calm - N/A   Clear
6:35 PM 17.2 °F 4.1 °F 56% 30.00 in 10.0 mi Calm Calm - N/A   Clear
6:55 PM 17.1 °F 3.4 °F 55% 30.00 in 10.0 mi Calm Calm - N/A   Clear
7:15 PM 16.5 °F 3.7 °F 57% 30.01 in 10.0 mi Calm Calm - N/A   Clear
7:35 PM 16.2 °F 3.9 °F 59% 30.01 in 10.0 mi Calm Calm - N/A   Clear
7:55 PM 16.3 °F 3.9 °F 58% 30.02 in 10.0 mi Calm Calm - N/A   Clear
8:15 PM 16.0 °F 3.7 °F 59% 30.03 in 10.0 mi Calm Calm - N/A   Clear
8:35 PM 15.1 °F 3.4 °F 60% 30.03 in 10.0 mi Calm Calm - N/A   Clear
8:55 PM 10.0 °F 2.1 °F 70% 30.03 in 10.0 mi Calm Calm - N/A   Clear
9:15 PM 11.1 °F 2.1 °F 67% 30.03 in 10.0 mi Calm Calm - N/A   Clear
9:35 PM 13.3 °F 3.0 °F 64% 30.03 in 10.0 mi Calm Calm - N/A   Clear
9:55 PM 15.1 °F 3.0 °F 59% 30.03 in 10.0 mi Calm Calm - N/A   Clear
10:15 PM 12.2 °F 2.1 °F 64% 30.03 in 10.0 mi Calm Calm - N/A   Clear
10:35 PM 11.3 °F 2.1 °F 67% 30.03 in 10.0 mi Calm Calm - N/A   Clear
10:55 PM 12.2 °F 2.1 °F 64% 30.03 in 10.0 mi Calm Calm - N/A   Clear
11:15 PM 9.0 °F 0.9 °F 70% 30.03 in 10.0 mi Calm Calm - N/A   Clear
11:35 PM 9.3 °F 1.2 °F 70% 30.03 in 10.0 mi Calm Calm - N/A   Clear
11:55 PM 7.5 °F 0.7 °F 74% 30.02 in 10.0 mi Calm Calm - N/A   Clear